CAPE
3 2 0 0 0 0 0 0 0 0 0 0 0 0 0 0 0 0 0 0 0 0 0 0 0 0 0 0 0 0 0 0 0 0 0 0 0 0 0 0 0 0 0 0
0 0 4 1 0 0 0 0 0 0 0 0 0 0 0 0 0 0 0 0 0 0 0 0 0 0 0 0 0 0 0 0 0 0 0 0 0 0 0 0 0 0 0 0
4 9 14 4 0 0 0 0 0 0 0 0 0 0 0 0 0 0 0 0 0 0 0 0 0 0 0 0 0 0 0 0 0 0 0 0 0 0 0 0 0 0 0 0
10 14 20 15 5 0 0 0 0 0 0 0 0 0 0 0 0 0 0 0 0 0 0 0 0 0 0 0 0 0 0 0 0 0 0 0 0 0 0 0 0 0 0 0
7 12 12 15 13 0 0 0 0 0 0 0 0 0 0 0 0 0 0 0 0 0 0 0 0 0 0 0 0 0 0 0 0 0 0 0 0 0 0 0 0 0 0 0
9 9 8 20 22 0 0 0 0 0 0 0 0 0 0 0 0 0 0 0 0 0 0 0 0 0 0 0 0 0 0 0 0 0 0 0 0 0 0 0 0 0 0 0
10 11 13 26 28 3 0 0 0 0 0 0 0 0 0 0 0 0 0 0 0 0 0 0 0 0 0 0 0 0 0 0 0 0 0 0 0 0 0 0 0 0 0 0
17 24 20 22 25 24 0 0 0 0 0 0 0 0 0 0 0 0 0 0 0 0 0 0 0 0 0 0 0 0 0 0 0 0 0 0 0 0 0 0 0 0 0 0
25 15 15 23 16 16 0 0 0 0 0 0 0 0 0 0 0 0 0 0 0 0 0 0 0 0 0 0 0 0 0 0 0 0 0 0 0 0 0 0 0 0 0 0
33 13 21 18 18 29 4 1 1 0 0 0 0 0 0 0 0 0 0 0 0 0 0 0 0 0 0 0 0 0 0 0 0 0 0 0 0 0 0 0 0 0 0 0
15 7 11 22 28 20 3 1 1 0 0 0 0 0 0 0 0 0 0 0 0 0 0 0 0 0 0 0 0 0 0 0 0 0 0 0 0 0 0 0 0 0 0 0
18 6 10 31 32 29 4 0 0 0 0 0 0 0 0 0 0 0 0 0 0 0 0 0 0 0 0 0 0 0 0 0 0 0 0 0 0 0 0 0 0 0 0 0
18 7 13 22 13 0 0 0 0 0 0 0 0 0 0 0 0 0 0 0 0 0 0 0 0 0 0 0 0 0 0 0 0 0 0 0 0 0 0 0 0 0 0 0
32 0 11 4 0 0 0 0 0 0 0 0 0 0 0 0 0 0 0 0 0 0 0 0 0 0 0 0 0 0 0 0 0 0 0 0 0 0 0 0 0 0 0 0
24 11 13 1 0 0 0 0 0 0 0 0 0 0 0 0 0 0 0 0 0 0 0 0 0 0 0 0 0 0 0 0 0 0 0 0 0 0 0 0 0 0 0 0
12 12 1 1 0 1 0 0 0 0 0 0 0 0 0 0 0 0 0 0 0 0 0 0 0 0 0 0 0 0 0 0 0 0 0 0 0 0 0 0 0 0 0 0
0 3 3 0 0 0 0 0 0 0 0 0 0 0 0 0 0 0 0 0 0 0 0 0 0 0 0 0 0 0 0 0 0 0 0 0 0 0 0 0 0 0 0 0
0 1 0 1 0 0 0 0 0 0 0 0 0 0 0 0 0 0 0 0 0 0 0 0 0 0 0 0 0 0 0 0 0 0 0 0 0 0 0 0 0 0 0 0
0 1 0 0 0 0 0 0 0 0 0 0 0 0 0 0 0 0 0 0 0 0 0 0 0 0 0 0 0 0 0 0 0 0 0 0 0 0 0 0 0 0 0 0
0 0 0 0 0 0 0 0 0 0 0 0 0 0 0 0 0 0 0 0 0 0 0 0 0 0 0 0 0 0 0 0 0 0 0 0 0 0 0 0 0 0 0 0
0 0 0 0 0 0 0 0 0 0 0 0 0 0 0 0 0 0 0 0 0 0 0 0 0 0 0 0 0 0 0 0 0 0 0 0 0 0 0 0 0 0 0 0
0 0 0 0 0 0 0 0 0 0 0 0 0 0 0 0 0 0 0 0 0 0 0 0 0 0 0 0 0 0 0 0 0 0 0 0 0 0 0 0 0 0 0 0
0 0 0 0 0 0 0 0 0 0 0 0 0 0 0 0 0 0 0 0 0 0 0 0 0 0 0 0 0 0 0 0 0 0 0 0 0 0 0 0 0 0 0 0
0 0 0 0 0 0 0 0 0 0 0 0 0 0 0 0 0 0 0 0 0 0 0 0 0 0 0 0 0 0 0 0 0 0 0 0 0 0 0 0 0 0 0 0
0 0 0 0 0 0 0 0 0 0 0 0 0 0 0 0 0 0 0 0 0 0 0 0 0 0 0 0 0 0 0 0 0 0 0 0 0 0 0 0 0 0 0 0
0 0 0 0 0 0 0 0 0 0 0 0 0 0 0 0 0 0 0 0 0 0 0 0 0 0 0 0 0 0 0 0 0 0 0 0 0 0 0 0 0 0 0 0
0 0 0 0 0 0 0 0 0 0 0 0 0 0 0 0 0 0 0 0 0 0 0 0 0 0 0 0 0 0 0 0 0 0 0 0 0 0 0 0 0 0 0 0
CIN
-0 -0 -0 -0 -0 -0 -0 -0 -0 -0 -0 -0 -0 -0 -0 -0 -0 -0 -0 -0 -0 -0 -0 -0 -0 -0 -0 -0 -0 -0 -0 -0 -0 -0 -0 -0 -0 -0 -0 -0 -0 -0 -0 -0
-0 -0 -0 -0 -0 -0 -0 -0 -0 -0 -0 -0 -0 -0 -0 -0 -0 -0 -0 -0 -0 -0 -0 -0 -0 -0 -0 -0 -0 -0 -0 -0 -0 -0 -0 -0 -0 -0 -0 -0 -0 -0 -0 -0
-2 -0 -0 -0 -0 -0 -0 -0 -0 -0 -0 -0 -0 -0 -0 -0 -0 -0 -0 -0 -0 -0 -0 -0 -0 -0 -0 -0 -0 -0 -0 -0 -0 -0 -0 -0 -0 -0 -0 -0 -0 -0 -0 -0
-0 -0 -0 -0 -0 -0 -0 -0 -0 -0 -0 -0 -0 -0 -0 -0 -0 -0 -0 -0 -0 -0 -0 -0 -0 -0 -0 -0 -0 -0 -0 -0 -0 -0 -0 -0 -0 -0 -0 -0 -0 -0 -0 -0
-0 -0 -0 -0 -0 -0 -0 -0 -0 -0 -0 -0 -0 -0 -0 -0 -0 -0 -0 -0 -0 -0 -0 -0 -0 -0 -0 -0 -0 -0 -0 -0 -0 -0 -0 -0 -0 -0 -0 -0 -0 -0 -0 -0
-0 -0 -0 -0 -0 -0 -0 -0 -0 -0 -0 -0 -0 -0 -0 -0 -0 -0 -0 -0 -0 -0 -0 -0 -0 -0 -0 -0 -0 -0 -0 -0 -0 -0 -0 -0 -0 -0 -0 -0 -0 -0 -0 -0
-0 -0 -0 -0 -0 -7 -0 -0 -0 -0 -0 -0 -0 -0 -0 -0 -0 -0 -0 -0 -0 -0 -0 -0 -0 -0 -0 -0 -0 -0 -0 -0 -0 -0 -0 -0 -0 -0 -0 -0 -0 -0 -0 -0
-0 -0 -0 -0 -0 -0 -1 -0 -0 -0 -0 -0 -0 -0 -0 -0 -0 -0 -0 -0 -0 -0 -0 -0 -0 -0 -0 -0 -0 -0 -0 -0 -0 -0 -0 -0 -0 -0 -0 -0 -0 -0 -0 -0
-0 -0 -0 -0 -0 -0 -17 -0 -0 -0 -0 -0 -0 -0 -0 -0 -0 -0 -0 -0 -0 -0 -0 -0 -0 -0 -0 -0 -0 -0 -0 -0 -0 -0 -0 -0 -0 -0 -0 -0 -0 -0 -0 -0
-0 -0 -0 -1 -1 -0 -10 -21 -0 -0 -0 -0 -0 -0 -0 -0 -0 -0 -0 -0 -0 -0 -0 -0 -0 -0 -0 -0 -0 -0 -0 -0 -0 -0 -0 -0 -0 -0 -0 -0 -0 -0 -0 -0
-0 -0 -0 -0 -1 -4 -29 -0 -0 -0 -0 -0 -0 -0 -0 -0 -0 -0 -0 -0 -0 -0 -0 -0 -0 -0 -0 -0 -0 -0 -0 -0 -0 -0 -0 -0 -0 -0 -0 -0 -0 -0 -0 -0
-0 -0 -0 -0 -3 -6 -31 -0 -0 -0 -0 -0 -0 -0 -0 -0 -0 -0 -0 -0 -0 -0 -0 -0 -0 -0 -0 -0 -0 -0 -0 -0 -0 -0 -0 -0 -0 -0 -0 -0 -0 -0 -0 -0
-0 -2 -0 -0 -3 -0 -0 -0 -0 -0 -0 -0 -0 -0 -0 -0 -0 -0 -0 -0 -0 -0 -0 -0 -0 -0 -0 -0 -0 -0 -0 -0 -0 -0 -0 -0 -0 -0 -0 -0 -0 -0 -0 -0
-0 -5 -4 -4 -0 -0 -0 -0 -0 -0 -0 -0 -0 -0 -0 -0 -0 -0 -0 -0 -0 -0 -0 -0 -0 -0 -0 -0 -0 -0 -0 -0 -0 -0 -0 -0 -0 -0 -0 -0 -0 -0 -0 -0
-0 -6 -5 -0 -0 -0 -0 -0 -0 -0 -0 -0 -0 -0 -0 -0 -0 -0 -0 -0 -0 -0 -0 -0 -0 -0 -0 -0 -0 -0 -0 -0 -0 -0 -0 -0 -0 -0 -0 -0 -0 -0 -0 -0
-0 -0 -0 -0 -0 -0 -0 -0 -0 -0 -0 -0 -0 -0 -0 -0 -0 -0 -0 -0 -0 -0 -0 -0 -0 -0 -0 -0 -0 -0 -0 -0 -0 -0 -0 -0 -0 -0 -0 -0 -0 -0 -0 -0
-0 -0 -0 -0 -0 -0 -0 -0 -0 -0 -0 -0 -0 -0 -0 -0 -0 -0 -0 -0 -0 -0 -0 -0 -0 -0 -0 -0 -0 -0 -0 -0 -0 -0 -0 -0 -0 -0 -0 -0 -0 -0 -0 -0
-0 -0 -0 -0 -0 -0 -0 -0 -0 -0 -0 -0 -0 -0 -0 -0 -0 -0 -0 -0 -0 -0 -0 -0 -0 -0 -0 -0 -0 -0 -0 -0 -0 -0 -0 -0 -0 -0 -0 -0 -0 -0 -0 -0
-0 -1 -0 -0 -0 -0 -0 -0 -0 -0 -0 -0 -0 -0 -0 -0 -0 -0 -0 -0 -0 -0 -0 -0 -0 -0 -0 -0 -0 -0 -0 -0 -0 -0 -0 -0 -0 -0 -0 -0 -0 -0 -0 -0
-0 -0 -0 -0 -0 -0 -0 -0 -0 -0 -0 -0 -0 -0 -0 -0 -0 -0 -0 -0 -0 -0 -0 -0 -0 -0 -0 -0 -0 -0 -0 -0 -0 -0 -0 -0 -0 -0 -0 -0 -0 -0 -0 -0
-0 -0 -0 -0 -0 -0 -0 -0 -0 -0 -0 -0 -0 -0 -0 -0 -0 -0 -0 -0 -0 -0 -0 -0 -0 -0 -0 -0 -0 -0 -0 -0 -0 -0 -0 -0 -0 -0 -0 -0 -0 -0 -0 -0
-0 -0 -0 -0 -0 -0 -0 -0 -0 -0 -0 -0 -0 -0 -0 -0 -0 -0 -0 -0 -0 -0 -0 -0 -0 -0 -0 -0 -0 -0 -0 -0 -0 -0 -0 -0 -0 -0 -0 -0 -0 -0 -0 -0
-0 -0 -0 -0 -0 -0 -0 -0 -0 -0 -0 -0 -0 -0 -0 -0 -0 -0 -0 -0 -0 -0 -0 -0 -0 -0 -0 -0 -0 -0 -0 -0 -0 -0 -0 -0 -0 -0 -0 -0 -0 -0 -0 -0
-0 -0 -0 -0 -0 -0 -0 -0 -0 -0 -0 -0 -0 -0 -0 -0 -0 -0 -0 -0 -0 -0 -0 -0 -0 -0 -0 -0 -0 -0 -0 -0 -0 -0 -0 -0 -0 -0 -0 -0 -0 -0 -0 -0
-0 -0 -0 -0 -0 -0 -0 -0 -0 -0 -0 -0 -0 -0 -0 -0 -0 -0 -0 -0 -0 -0 -0 -0 -0 -0 -0 -0 -0 -0 -0 -0 -0 -0 -0 -0 -0 -0 -0 -0 -0 -0 -0 -0
-0 -0 -0 -0 -0 -0 -0 -0 -0 -0 -0 -0 -0 -0 -0 -0 -0 -0 -0 -0 -0 -0 -0 -0 -0 -0 -0 -0 -0 -0 -0 -0 -0 -0 -0 -0 -0 -0 -0 -0 -0 -0 -0 -0
-0 -0 -0 -0 -0 -0 -0 -0 -0 -0 -0 -0 -0 -0 -0 -0 -0 -0 -0 -0 -0 -0 -0 -0 -0 -0 -0 -0 -0 -0 -0 -0 -0 -0 -0 -0 -0 -0 -0 -0 -0 -0 -0 -0
Wind_Speed
42 44 47 48 49 51 40 32 34 32 27 30 28 27 23 20 20 20 19 19 20 21 21 22 20 21 19 20 21 19 19 18 21 21 20 19 20 23 24 29 31 28 29 30
42 44 46 47 48 50 38 38 32 30 31 35 31 25 23 20 20 20 19 20 20 20 20 20 20 19 17 20 21 19 19 18 21 20 20 19 21 22 22 23 26 31 34 32
42 43 44 45 44 47 36 37 41 34 33 30 29 26 22 20 18 19 18 19 19 20 19 19 19 18 19 18 21 21 17 16 18 20 19 18 20 21 21 23 28 28 29 25
42 43 43 42 42 43 36 38 37 34 36 32 29 23 19 19 19 18 20 18 20 20 20 20 19 18 19 18 22 19 17 17 17 18 19 19 18 18 19 21 23 27 27 23
43 42 41 42 41 39 35 38 39 33 31 27 26 22 19 18 18 18 18 19 20 19 19 19 20 19 18 18 20 19 19 17 17 18 17 17 18 17 17 18 18 19 18 22
41 41 42 42 39 36 35 32 30 32 30 28 25 21 19 17 16 17 18 19 21 21 20 18 17 15 16 17 19 21 19 18 17 18 18 19 20 19 17 17 17 15 18 18
41 42 41 41 41 34 31 30 29 33 32 29 23 20 19 17 17 17 18 20 22 21 20 19 19 18 17 18 18 18 19 18 18 18 18 19 18 17 15 17 16 15 18 11
41 41 43 42 41 39 29 27 28 26 30 26 24 24 19 17 18 18 19 20 20 20 21 21 20 20 18 20 20 19 18 17 18 18 17 19 17 16 16 17 18 15 14 8
40 43 42 42 42 37 27 27 23 23 28 27 24 21 19 19 18 18 19 20 20 21 21 22 22 21 20 20 19 18 19 18 17 17 17 17 17 17 16 18 18 14 13 10
41 44 43 43 41 35 29 28 24 24 26 24 23 22 21 20 20 19 20 22 22 22 23 21 20 18 18 18 19 20 20 18 17 17 16 16 18 17 19 20 21 21 18 16
44 46 44 42 41 37 30 28 27 24 23 25 26 23 23 21 22 21 20 19 21 20 19 17 16 15 16 17 17 16 18 18 17 17 16 16 20 19 19 22 24 24 22 18
43 47 45 40 40 36 29 29 26 25 27 26 27 28 27 22 20 17 15 15 13 13 13 13 14 14 15 15 16 17 16 17 13 15 17 18 21 23 23 22 25 24 22 22
41 43 43 40 38 35 30 30 26 24 26 27 24 19 20 24 15 13 10 11 11 12 13 13 15 16 16 16 16 16 15 18 16 19 18 25 30 21 20 25 27 27 26 25
38 38 38 36 35 33 30 31 27 23 23 24 23 17 18 10 14 15 13 11 12 13 14 16 16 17 16 16 17 17 16 17 18 16 22 30 20 25 30 32 29 29 29 26
38 33 33 32 30 29 29 30 31 26 22 23 22 19 17 16 18 18 17 16 16 16 17 18 19 17 17 17 17 17 17 17 20 18 21 21 19 30 32 36 33 32 31 27
36 32 30 29 25 21 21 24 25 25 21 21 20 16 16 13 14 19 20 20 21 20 20 19 17 16 16 15 15 13 14 13 15 18 22 20 18 29 29 30 37 34 28 25
33 29 29 30 32 30 28 24 19 16 19 20 21 19 16 16 19 19 19 20 20 20 19 19 17 16 16 15 15 14 14 17 21 21 31 35 30 34 35 34 33 29 27 27
28 24 25 25 25 25 27 24 22 19 21 22 23 18 18 20 17 16 16 18 19 20 19 17 17 15 15 15 14 16 21 27 28 32 31 30 31 35 36 33 32 32 32 31
25 23 23 23 26 25 22 17 19 22 24 24 24 23 17 14 16 16 17 18 19 17 19 18 17 16 18 17 19 21 27 34 38 39 38 37 36 38 38 37 35 35 35 35
24 23 24 28 24 19 18 20 20 22 22 24 25 19 15 13 15 17 17 18 18 18 18 16 18 18 18 23 24 25 35 43 41 44 46 45 44 42 40 38 36 35 36 36
25 26 28 22 18 21 23 25 23 21 22 22 20 18 13 17 17 16 17 16 17 18 19 21 19 19 22 30 33 35 39 40 38 38 39 40 40 41 42 41 39 37 37 36
24 22 21 23 26 24 25 25 21 22 21 20 19 14 16 16 17 16 16 16 18 20 19 21 23 22 28 38 39 41 41 42 42 41 42 42 41 40 39 39 40 38 36 35
22 24 27 27 26 30 27 27 22 20 19 19 16 13 17 16 19 17 17 18 19 17 23 24 24 28 39 39 43 44 43 45 44 44 42 41 38 38 37 37 36 36 36 34
26 28 32 31 29 25 22 20 19 16 16 14 12 15 18 18 18 18 20 19 21 24 27 29 32 39 40 43 43 45 46 46 45 44 41 39 38 37 36 34 33 32 32 32
26 27 31 29 24 21 19 19 19 18 17 16 17 17 18 19 20 22 20 24 25 26 29 32 36 38 42 43 44 45 45 45 43 40 39 37 36 35 34 34 32 31 29 29
25 26 27 24 24 23 20 20 21 19 18 18 18 19 20 22 21 24 23 26 26 28 31 32 34 38 40 42 42 43 42 41 39 38 36 34 33 32 29 28 29 30 29 28
25 26 25 24 21 21 19 19 20 19 20 21 19 22 22 19 22 24 22 24 26 27 29 29 32 36 39 40 41 42 41 40 38 36 34 32 30 28 27 28 27 31 30 27
Wind_Direction
13 10 9 8 7 6 13 11 4 8 13 1 3 358 1 8 7 12 11 14 11 9 11 10 12 6 10 7 356 342 333 321 297 289 292 289 281 272 270 262 261 265 265 264
12 10 9 8 8 8 11 6 5 11 12 359 359 2 4 11 11 13 14 13 16 17 16 13 14 17 23 11 359 352 338 323 305 296 292 290 281 280 276 273 271 264 262 264
12 10 9 9 10 8 14 9 2 6 12 10 4 4 7 9 20 17 19 18 20 16 18 16 14 19 19 15 356 344 345 336 317 299 297 295 285 282 282 274 268 267 268 269
11 9 10 10 10 10 16 13 7 8 360 4 7 11 14 13 14 20 19 18 17 17 13 12 13 18 17 15 358 354 349 339 329 314 304 295 293 290 287 280 277 270 272 268
10 11 11 9 10 12 15 9 7 7 4 8 9 15 16 17 19 21 18 18 18 20 16 15 6 11 16 14 3 0 346 341 330 318 311 307 299 297 294 291 290 288 280 273
10 11 9 10 11 14 11 12 11 8 7 9 11 17 20 21 26 26 26 23 18 14 13 17 17 25 22 13 4 353 353 341 330 316 314 307 298 294 295 298 295 293 283 284
11 10 10 10 11 12 10 10 10 8 7 10 15 17 20 26 26 25 23 20 15 17 21 22 21 23 24 15 6 3 353 341 331 320 313 302 305 306 302 304 305 300 297 295
11 11 10 8 6 7 9 12 12 12 9 14 18 17 23 27 25 22 20 19 22 24 21 13 10 10 14 8 6 5 1 346 329 320 314 306 308 304 305 306 303 309 307 303
11 10 8 7 5 5 14 14 21 19 13 15 19 23 30 31 29 25 20 25 25 23 17 13 9 9 11 4 4 14 358 351 334 327 316 309 307 306 314 316 304 321 320 311
12 9 9 7 7 12 20 20 26 24 20 28 34 43 46 42 35 29 22 14 15 21 14 20 24 31 27 28 23 9 354 341 334 327 323 321 312 312 313 303 301 316 313 310
11 10 9 11 17 18 25 27 30 33 43 48 50 54 51 48 38 39 29 35 28 30 39 53 56 61 61 63 65 70 44 10 355 344 336 328 320 318 316 314 316 316 316 312
12 12 15 21 21 24 33 34 45 56 61 67 65 58 48 49 52 65 72 73 71 78 86 88 92 95 98 96 96 82 86 69 76 23 349 349 334 323 324 328 320 320 318 313
14 17 19 21 24 32 47 47 54 67 69 70 72 74 64 52 82 92 97 91 93 101 98 101 99 94 99 96 93 86 77 42 52 14 6 331 309 336 339 332 322 320 318 315
15 19 22 27 32 44 52 49 53 67 74 68 72 89 87 91 85 81 81 94 98 100 99 99 99 98 96 91 86 75 72 53 39 34 1 332 355 342 328 324 323 319 317 314
15 21 27 32 41 50 52 52 53 65 76 72 79 86 85 79 73 73 76 87 94 98 93 90 87 91 85 81 74 63 56 48 30 19 4 354 342 336 330 321 321 319 317 314
19 25 31 35 42 47 47 50 59 63 75 78 78 94 80 78 80 76 74 79 81 85 90 94 96 92 90 84 71 75 62 48 30 8 358 346 325 335 333 329 321 320 320 317
22 32 40 42 44 49 50 58 66 75 80 78 71 71 75 67 68 71 75 79 86 91 91 86 83 81 76 71 58 54 36 17 3 356 348 340 342 334 329 326 324 323 320 318
28 41 45 45 49 53 54 61 64 75 74 71 64 64 66 58 68 78 84 87 87 80 81 76 71 74 64 55 48 27 9 357 351 346 342 334 332 331 329 328 325 320 316 314
36 46 47 45 44 45 55 65 68 70 66 64 58 52 65 65 71 80 81 82 78 80 69 66 62 59 48 38 19 5 358 350 342 340 338 336 334 329 327 325 322 318 315 313
40 41 36 32 40 53 61 59 58 58 61 60 54 58 69 71 71 75 75 75 71 65 60 54 51 46 44 22 9 360 350 344 342 339 337 334 330 329 326 324 320 317 314 313
36 34 34 41 49 50 48 44 48 51 52 51 52 56 62 67 66 71 70 68 62 54 47 37 36 32 21 7 359 352 347 345 343 339 335 333 330 327 325 322 320 316 314 311
39 43 46 42 40 43 42 40 46 45 48 46 45 54 63 65 65 67 63 63 55 43 33 33 25 23 7 356 354 351 348 346 342 341 337 335 333 330 327 323 320 316 314 311
40 38 33 33 36 34 35 32 40 40 43 44 40 56 59 62 57 61 58 52 41 33 32 24 21 6 356 356 352 350 350 347 345 343 342 340 338 336 333 328 325 320 315 312
32 29 25 30 31 35 39 37 38 42 42 38 48 59 56 55 51 51 44 41 36 29 22 15 4 357 356 355 354 352 350 350 349 349 349 347 346 343 341 338 334 328 321 316
30 30 24 28 35 40 40 40 37 37 37 43 50 55 51 48 47 42 41 33 27 24 14 2 356 357 356 355 355 355 355 355 355 356 356 356 355 353 350 348 343 338 331 322
31 31 26 31 32 33 37 36 32 39 38 45 47 45 42 38 40 35 35 25 24 13 3 358 359 358 359 359 359 360 360 1 2 4 4 4 4 3 2 2 358 349 339 330
28 27 32 31 33 35 38 37 33 36 37 36 42 36 36 41 35 33 34 26 11 3 2 4 2 2 3 3 4 5 6 8 9 10 11 13 15 17 19 16 16 359 347 340